Time,TemperatureF,DewpointF,PressureIn,WindDirection,WindDirectionDegrees,WindSpeedMPH,WindSpeedGustMPH,Humidity,HourlyPrecipIn,Conditions,Clouds,dailyrainin,SolarRadiationWatts/m^2,SoftwareType,DateUTC
2013-02-02 00:00:00,23.5,10.9,30.23,NNW,342,2.0,8.0,58,0.00,,,0.00,0,LWC V2.00 B2112,2013-02-02 05:00:00,
2013-02-02 00:05:00,23.5,11.3,30.23,NNW,342,0.0,3.0,59,0.00,,,0.00,0,LWC V2.00 B2112,2013-02-02 05:05:00,
2013-02-02 00:10:00,23.5,11.7,30.23,NNW,342,1.0,1.0,60,0.00,,,0.00,0,LWC V2.00 B2112,2013-02-02 05:10:00,
2013-02-02 00:15:00,23.4,11.2,30.23,NNW,342,1.0,2.0,59,0.00,,,0.00,0,LWC V2.00 B2112,2013-02-02 05:15:00,
2013-02-02 00:20:00,23.3,11.5,30.24,NNW,336,0.0,2.0,60,0.00,,,0.00,0,LWC V2.00 B2112,2013-02-02 05:20:00,
2013-02-02 00:25:00,23.3,11.5,30.23,NNW,336,0.0,1.0,60,0.00,,,0.00,0,LWC V2.00 B2112,2013-02-02 05:25:00,
2013-02-02 00:30:00,23.1,10.9,30.24,NNW,342,2.0,3.0,59,0.00,,,0.00,0,LWC V2.00 B2112,2013-02-02 05:30:00,
2013-02-02 00:35:00,23.1,11.3,30.24,NNW,342,0.0,2.0,60,0.00,,,0.00,0,LWC V2.00 B2112,2013-02-02 05:35:00,
2013-02-02 00:40:00,23.0,10.8,30.24,NNW,342,0.0,3.0,59,0.00,,,0.00,0,LWC V2.00 B2112,2013-02-02 05:40:00,
2013-02-02 00:45:00,23.0,10.8,30.24,NNW,342,1.0,1.0,59,0.00,,,0.00,0,LWC V2.00 B2112,2013-02-02 05:45:00,
2013-02-02 00:50:00,23.0,10.8,30.24,NNW,339,1.0,2.0,59,0.00,,,0.00,0,LWC V2.00 B2112,2013-02-02 05:50:00,
2013-02-02 00:55:00,22.9,10.7,30.24,NW,323,2.0,2.0,59,0.00,,,0.00,0,LWC V2.00 B2112,2013-02-02 05:55:00,
2013-02-02 01:00:00,22.9,10.4,30.24,NNW,342,0.0,3.0,58,0.00,,,0.00,0,LWC V2.00 B2112,2013-02-02 06:00:00,
2013-02-02 01:05:00,22.8,10.6,30.25,NNW,340,0.0,2.0,59,0.00,,,0.00,0,LWC V2.00 B2112,2013-02-02 06:05:00,
2013-02-02 01:10:00,22.7,10.6,30.25,NNW,342,0.0,1.0,59,0.00,,,0.00,0,LWC V2.00 B2112,2013-02-02 06:10:00,
2013-02-02 01:15:00,22.7,10.6,30.25,NNW,342,0.0,2.0,59,0.00,,,0.00,0,LWC V2.00 B2112,2013-02-02 06:15:00,
2013-02-02 01:20:00,22.6,10.8,30.25,NNW,342,1.0,1.0,60,0.00,,,0.00,0,LWC V2.00 B2112,2013-02-02 06:20:00,
2013-02-02 01:25:00,22.5,10.7,30.25,NNW,342,0.0,2.0,60,0.00,,,0.00,0,LWC V2.00 B2112,2013-02-02 06:25:00,
2013-02-02 01:30:00,22.4,10.6,30.25,NNW,342,0.0,1.0,60,0.00,,,0.00,0,LWC V2.00 B2112,2013-02-02 06:30:00,
2013-02-02 01:35:00,22.3,10.9,30.25,NNW,342,2.0,2.0,61,0.00,,,0.00,0,LWC V2.00 B2112,2013-02-02 06:35:00,
2013-02-02 01:40:00,22.2,10.5,30.25,NNW,342,0.0,2.0,60,0.00,,,0.00,0,LWC V2.00 B2112,2013-02-02 06:40:00,
2013-02-02 01:42:00,22.2,10.8,30.25,NNW,342,0.0,2.0,61,0.00,,,0.00,0,LWC V2.00 B2112,2013-02-02 06:42:00,
2013-02-02 01:47:00,22.1,10.7,30.25,NNW,342,0.0,2.0,61,0.00,,,0.00,0,LWC V2.00 B2112,2013-02-02 06:47:00,
2013-02-02 01:52:00,22.1,10.4,30.25,NNW,342,0.0,3.0,60,0.00,,,0.00,0,LWC V2.00 B2112,2013-02-02 06:52:00,
2013-02-02 01:57:00,22.0,10.6,30.25,NNW,342,0.0,2.0,61,0.00,,,0.00,0,LWC V2.00 B2112,2013-02-02 06:57:00,
2013-02-02 02:02:00,21.9,10.2,30.25,NNW,342,1.0,2.0,60,0.00,,,0.00,0,LWC V2.00 B2112,2013-02-02 07:02:00,
2013-02-02 02:07:00,21.8,10.1,30.25,NNW,342,0.0,1.0,60,0.00,,,0.00,0,LWC V2.00 B2112,2013-02-02 07:07:00,
2013-02-02 02:12:00,21.8,10.4,30.26,NNW,342,0.0,0.0,61,0.00,,,0.00,0,LWC V2.00 B2112,2013-02-02 07:12:00,
2013-02-02 02:17:00,21.7,10.0,30.26,NW,317,0.0,3.0,60,0.00,,,0.00,0,LWC V2.00 B2112,2013-02-02 07:17:00,
2013-02-02 02:22:00,21.6,10.3,30.26,NNW,342,0.0,4.0,61,0.00,,,0.00,0,LWC V2.00 B2112,2013-02-02 07:22:00,
2013-02-02 02:27:00,21.6,9.9,30.26,NNW,342,0.0,1.0,60,0.00,,,0.00,0,LWC V2.00 B2112,2013-02-02 07:27:00,
2013-02-02 02:32:00,21.6,10.3,30.26,NNW,342,0.0,3.0,61,0.00,,,0.00,0,LWC V2.00 B2112,2013-02-02 07:32:00,
2013-02-02 02:37:00,21.5,10.2,30.27,NNW,342,0.0,1.0,61,0.00,,,0.00,0,LWC V2.00 B2112,2013-02-02 07:37:00,
2013-02-02 02:42:00,21.4,10.1,30.27,NNW,342,0.0,1.0,61,0.00,,,0.00,0,LWC V2.00 B2112,2013-02-02 07:42:00,
2013-02-02 02:47:00,21.4,10.1,30.27,NNW,342,0.0,2.0,61,0.00,,,0.00,0,LWC V2.00 B2112,2013-02-02 07:47:00,
2013-02-02 02:52:00,21.3,10.0,30.27,NNW,342,0.0,1.0,61,0.00,,,0.00,0,LWC V2.00 B2112,2013-02-02 07:52:00,
2013-02-02 02:57:00,21.3,10.0,30.27,NNW,338,0.0,0.0,61,0.00,,,0.00,0,LWC V2.00 B2112,2013-02-02 07:57:00,
2013-02-02 03:05:00,21.2,9.9,30.27,NW,310,1.0,1.0,61,0.00,,,0.00,0,LWC V2.00 B2112,2013-02-02 08:05:00,
2013-02-02 03:10:00,21.2,9.9,30.27,West,272,0.0,3.0,61,0.00,,,0.00,0,LWC V2.00 B2112,2013-02-02 08:10:00,
2013-02-02 03:15:00,21.1,9.8,30.27,South,173,1.0,7.0,61,0.00,,,0.00,0,LWC V2.00 B2112,2013-02-02 08:15:00,
2013-02-02 03:20:00,21.1,9.4,30.28,South,173,0.0,1.0,60,0.00,,,0.00,0,LWC V2.00 B2112,2013-02-02 08:20:00,
2013-02-02 03:25:00,21.0,10.1,30.28,South,173,0.0,1.0,62,0.00,,,0.00,0,LWC V2.00 B2112,2013-02-02 08:25:00,
2013-02-02 03:30:00,21.0,9.3,30.27,SSW,194,0.0,3.0,60,0.00,,,0.00,0,LWC V2.00 B2112,2013-02-02 08:30:00,
2013-02-02 03:35:00,20.9,8.9,30.27,South,172,1.0,4.0,59,0.00,,,0.00,0,LWC V2.00 B2112,2013-02-02 08:35:00,
2013-02-02 03:40:00,20.9,9.2,30.27,South,175,0.0,1.0,60,0.00,,,0.00,0,LWC V2.00 B2112,2013-02-02 08:40:00,
2013-02-02 03:45:00,20.9,10.0,30.27,South,175,0.0,1.0,62,0.00,,,0.00,0,LWC V2.00 B2112,2013-02-02 08:45:00,
2013-02-02 03:50:00,20.8,9.5,30.27,WNW,284,1.0,4.0,61,0.00,,,0.00,0,LWC V2.00 B2112,2013-02-02 08:50:00,
2013-02-02 03:55:00,20.7,9.8,30.27,WNW,292,0.0,0.0,62,0.00,,,0.00,0,LWC V2.00 B2112,2013-02-02 08:55:00,
2013-02-02 04:00:00,20.7,9.8,30.27,WNW,292,0.0,0.0,62,0.00,,,0.00,0,LWC V2.00 B2112,2013-02-02 09:00:00,
2013-02-02 04:05:00,20.6,9.7,30.27,WNW,292,0.0,1.0,62,0.00,,,0.00,0,LWC V2.00 B2112,2013-02-02 09:05:00,
2013-02-02 04:10:00,20.4,9.8,30.27,WNW,292,0.0,0.0,63,0.00,,,0.00,0,LWC V2.00 B2112,2013-02-02 09:10:00,
2013-02-02 04:15:00,20.4,9.8,30.27,WNW,292,0.0,1.0,63,0.00,,,0.00,0,LWC V2.00 B2112,2013-02-02 09:15:00,
2013-02-02 04:20:00,20.3,9.7,30.27,WNW,292,0.0,1.0,63,0.00,,,0.00,0,LWC V2.00 B2112,2013-02-02 09:20:00,
2013-02-02 04:25:00,20.2,10.0,30.27,WNW,292,0.0,0.0,64,0.00,,,0.00,0,LWC V2.00 B2112,2013-02-02 09:25:00,
2013-02-02 04:30:00,20.1,10.3,30.27,WNW,292,0.0,0.0,65,0.00,,,0.00,0,LWC V2.00 B2112,2013-02-02 09:30:00,
2013-02-02 04:35:00,20.0,10.2,30.27,WNW,292,0.0,0.0,65,0.00,,,0.00,0,LWC V2.00 B2112,2013-02-02 09:35:00,
2013-02-02 04:40:00,19.8,10.3,30.27,WNW,292,0.0,0.0,66,0.00,,,0.00,0,LWC V2.00 B2112,2013-02-02 09:40:00,
2013-02-02 04:45:00,19.7,10.2,30.27,WNW,292,0.0,0.0,66,0.00,,,0.00,0,LWC V2.00 B2112,2013-02-02 09:45:00,
2013-02-02 04:50:00,19.6,9.8,30.27,WNW,292,0.0,1.0,65,0.00,,,0.00,0,LWC V2.00 B2112,2013-02-02 09:50:00,
2013-02-02 04:55:00,19.6,10.1,30.27,WNW,292,0.0,0.0,66,0.00,,,0.00,0,LWC V2.00 B2112,2013-02-02 09:55:00,
2013-02-02 05:00:00,19.5,10.4,30.27,WNW,292,0.0,0.0,67,0.00,,,0.00,0,LWC V2.00 B2112,2013-02-02 10:00:00,
2013-02-02 05:05:00,19.4,10.6,30.27,WNW,292,0.0,1.0,68,0.00,,,0.00,0,LWC V2.00 B2112,2013-02-02 10:05:00,
2013-02-02 05:10:00,19.3,10.5,30.27,WNW,292,0.0,1.0,68,0.00,,,0.00,0,LWC V2.00 B2112,2013-02-02 10:10:00,
2013-02-02 05:15:00,19.3,10.5,30.27,WNW,292,0.0,0.0,68,0.00,,,0.00,0,LWC V2.00 B2112,2013-02-02 10:15:00,
2013-02-02 05:20:00,19.3,10.2,30.27,WNW,292,0.0,1.0,67,0.00,,,0.00,0,LWC V2.00 B2112,2013-02-02 10:20:00,
2013-02-02 05:25:00,19.3,10.2,30.26,WNW,292,0.0,1.0,67,0.00,,,0.00,0,LWC V2.00 B2112,2013-02-02 10:25:00,
2013-02-02 05:30:00,19.3,10.2,30.26,WNW,292,0.0,0.0,67,0.00,,,0.00,0,LWC V2.00 B2112,2013-02-02 10:30:00,
2013-02-02 05:35:00,19.3,10.2,30.26,WNW,292,0.0,0.0,67,0.00,,,0.00,0,LWC V2.00 B2112,2013-02-02 10:35:00,
2013-02-02 05:40:00,19.3,10.5,30.27,WNW,292,0.0,0.0,68,0.00,,,0.00,0,LWC V2.00 B2112,2013-02-02 10:40:00,
2013-02-02 05:45:00,19.3,10.5,30.27,WNW,292,0.0,1.0,68,0.00,,,0.00,0,LWC V2.00 B2112,2013-02-02 10:45:00,
2013-02-02 05:50:00,19.2,10.1,30.26,WNW,292,0.0,2.0,67,0.00,,,0.00,0,LWC V2.00 B2112,2013-02-02 10:50:00,
2013-02-02 05:55:00,19.2,10.1,30.26,WNW,292,0.0,0.0,67,0.00,,,0.00,0,LWC V2.00 B2112,2013-02-02 10:55:00,
2013-02-02 06:00:00,19.2,10.1,30.27,WNW,292,0.0,0.0,67,0.00,,,0.00,0,LWC V2.00 B2112,2013-02-02 11:00:00,
2013-02-02 06:05:00,19.1,10.3,30.27,WNW,292,0.0,0.0,68,0.00,,,0.00,0,LWC V2.00 B2112,2013-02-02 11:05:00,
2013-02-02 06:10:00,19.1,10.3,30.27,WNW,292,1.0,1.0,68,0.00,,,0.00,0,LWC V2.00 B2112,2013-02-02 11:10:00,
2013-02-02 06:15:00,19.0,10.2,30.27,WNW,292,0.0,0.0,68,0.00,,,0.00,0,LWC V2.00 B2112,2013-02-02 11:15:00,
2013-02-02 06:20:00,19.0,10.5,30.27,WNW,292,0.0,3.0,69,0.00,,,0.00,0,LWC V2.00 B2112,2013-02-02 11:20:00,
2013-02-02 06:25:00,19.0,10.2,30.27,WNW,292,0.0,1.0,68,0.00,,,0.00,0,LWC V2.00 B2112,2013-02-02 11:25:00,
2013-02-02 06:30:00,18.9,10.4,30.28,WNW,292,0.0,0.0,69,0.00,,,0.00,0,LWC V2.00 B2112,2013-02-02 11:30:00,
2013-02-02 06:35:00,18.9,10.4,30.28,WNW,292,0.0,0.0,69,0.00,,,0.00,0,LWC V2.00 B2112,2013-02-02 11:35:00,
2013-02-02 06:40:00,18.8,10.7,30.28,WNW,292,0.0,1.0,70,0.00,,,0.00,0,LWC V2.00 B2112,2013-02-02 11:40:00,
2013-02-02 06:45:00,18.7,10.6,30.28,WNW,292,0.0,1.0,70,0.00,,,0.00,0,LWC V2.00 B2112,2013-02-02 11:45:00,
2013-02-02 06:50:00,18.7,10.9,30.28,WNW,292,0.0,0.0,71,0.00,,,0.00,0,LWC V2.00 B2112,2013-02-02 11:50:00,
2013-02-02 06:55:00,18.6,10.8,30.28,WNW,292,0.0,0.0,71,0.00,,,0.00,0,LWC V2.00 B2112,2013-02-02 11:55:00,
2013-02-02 07:00:00,18.5,10.7,30.28,WNW,292,0.0,1.0,71,0.00,,,0.00,0,LWC V2.00 B2112,2013-02-02 12:00:00,
2013-02-02 07:05:00,18.5,11.0,30.29,WNW,292,0.0,0.0,72,0.00,,,0.00,0,LWC V2.00 B2112,2013-02-02 12:05:00,
2013-02-02 07:10:00,18.4,10.9,30.29,WNW,292,0.0,0.0,72,0.00,,,0.00,0,LWC V2.00 B2112,2013-02-02 12:10:00,
2013-02-02 07:15:00,18.4,10.9,30.29,WNW,292,0.0,1.0,72,0.00,,,0.00,0,LWC V2.00 B2112,2013-02-02 12:15:00,
2013-02-02 07:20:00,18.4,10.6,30.29,WNW,292,0.0,1.0,71,0.00,,,0.00,0,LWC V2.00 B2112,2013-02-02 12:20:00,
2013-02-02 07:25:00,18.4,10.9,30.29,WNW,292,0.0,0.0,72,0.00,,,0.00,5,LWC V2.00 B2112,2013-02-02 12:25:00,
2013-02-02 07:30:00,18.4,10.9,30.29,WNW,292,0.0,1.0,72,0.00,,,0.00,5,LWC V2.00 B2112,2013-02-02 12:30:00,
2013-02-02 07:35:00,18.5,11.3,30.29,WNW,292,0.0,0.0,73,0.00,,,0.00,7,LWC V2.00 B2112,2013-02-02 12:35:00,
2013-02-02 07:40:00,18.5,11.0,30.29,WNW,292,0.0,1.0,72,0.00,,,0.00,7,LWC V2.00 B2112,2013-02-02 12:40:00,
2013-02-02 07:45:00,18.6,10.8,30.29,WNW,292,0.0,0.0,71,0.00,,,0.00,7,LWC V2.00 B2112,2013-02-02 12:45:00,
2013-02-02 07:50:00,18.8,10.7,30.29,WNW,292,0.0,1.0,70,0.00,,,0.00,9,LWC V2.00 B2112,2013-02-02 12:50:00,
2013-02-02 07:55:00,18.9,10.8,30.29,WNW,292,0.0,1.0,70,0.00,,,0.00,9,LWC V2.00 B2112,2013-02-02 12:55:00,
2013-02-02 08:00:00,19.1,10.6,30.29,WNW,292,0.0,1.0,69,0.00,,,0.00,9,LWC V2.00 B2112,2013-02-02 13:00:00,
2013-02-02 08:05:00,19.2,10.7,30.29,WNW,292,0.0,1.0,69,0.00,,,0.00,11,LWC V2.00 B2112,2013-02-02 13:05:00,
2013-02-02 08:10:00,19.5,11.0,30.29,WNW,292,0.0,0.0,69,0.00,,,0.00,12,LWC V2.00 B2112,2013-02-02 13:10:00,
2013-02-02 08:15:00,19.8,10.6,30.28,WNW,292,0.0,1.0,67,0.00,,,0.00,12,LWC V2.00 B2112,2013-02-02 13:15:00,
2013-02-02 08:20:00,20.2,10.3,30.29,WNW,292,0.0,0.0,65,0.00,,,0.00,14,LWC V2.00 B2112,2013-02-02 13:20:00,
2013-02-02 08:25:00,20.6,11.1,30.28,WNW,292,1.0,1.0,66,0.00,,,0.00,16,LWC V2.00 B2112,2013-02-02 13:25:00,
2013-02-02 08:30:00,20.9,10.7,30.29,WNW,288,0.0,3.0,64,0.00,,,0.00,18,LWC V2.00 B2112,2013-02-02 13:30:00,
2013-02-02 08:35:00,21.1,10.5,30.29,WNW,284,1.0,3.0,63,0.00,,,0.00,19,LWC V2.00 B2112,2013-02-02 13:35:00,
2013-02-02 08:40:00,21.3,10.3,30.29,SW,217,0.0,4.0,62,0.00,,,0.00,19,LWC V2.00 B2112,2013-02-02 13:40:00,
2013-02-02 08:50:00,21.5,10.6,30.29,SW,228,1.0,4.0,62,0.00,,,0.00,19,LWC V2.00 B2112,2013-02-02 13:50:00,
2013-02-02 09:00:00,21.5,10.6,30.29,SW,228,1.0,4.0,62,0.00,,,0.00,19,LWC V2.00 B2112,2013-02-02 14:00:00,
2013-02-02 09:10:00,21.5,10.6,30.29,SW,228,1.0,4.0,62,0.00,,,0.00,19,LWC V2.00 B2112,2013-02-02 14:10:00,
2013-02-02 09:20:00,21.5,10.6,30.29,SW,228,1.0,4.0,62,0.00,,,0.00,19,LWC V2.00 B2112,2013-02-02 14:20:00,
2013-02-02 09:30:00,21.5,10.6,30.29,SW,228,1.0,4.0,62,0.00,,,0.00,19,LWC V2.00 B2112,2013-02-02 14:30:00,
2013-02-02 09:40:00,21.5,10.6,30.29,SW,228,1.0,4.0,62,0.00,,,0.00,19,LWC V2.00 B2112,2013-02-02 14:40:00,
2013-02-02 09:50:00,21.5,10.6,30.29,SW,228,1.0,4.0,62,0.00,,,0.00,19,LWC V2.00 B2112,2013-02-02 14:50:00,
2013-02-02 10:00:00,21.5,10.6,30.29,SW,228,1.0,4.0,62,0.00,,,0.00,19,LWC V2.00 B2112,2013-02-02 15:00:00,
2013-02-02 10:10:00,21.6,10.6,30.29,SW,228,1.0,4.0,62,0.00,,,0.00,19,LWC V2.00 B2112,2013-02-02 15:10:00,
2013-02-02 10:20:00,21.6,10.6,30.29,SW,228,1.0,4.0,62,0.00,,,0.00,19,LWC V2.00 B2112,2013-02-02 15:20:00,
2013-02-02 10:30:00,21.6,10.6,30.29,SW,228,1.0,4.0,62,0.00,,,0.00,19,LWC V2.00 B2112,2013-02-02 15:30:00,
2013-02-02 10:40:00,21.6,10.6,30.29,SW,228,1.0,4.0,62,0.00,,,0.00,19,LWC V2.00 B2112,2013-02-02 15:40:00,
2013-02-02 10:50:00,21.6,10.6,30.29,SW,228,1.0,4.0,62,0.00,,,0.00,19,LWC V2.00 B2112,2013-02-02 15:50:00,
2013-02-02 11:00:00,21.6,10.6,30.29,SW,228,1.0,4.0,62,0.00,,,0.00,19,LWC V2.00 B2112,2013-02-02 16:00:00,
2013-02-02 11:10:00,21.6,10.6,30.29,SW,228,1.0,4.0,62,0.00,,,0.00,19,LWC V2.00 B2112,2013-02-02 16:10:00,
2013-02-02 11:20:00,21.6,10.6,30.29,SW,228,1.0,4.0,62,0.00,,,0.00,19,LWC V2.00 B2112,2013-02-02 16:20:00,
2013-02-02 11:30:00,21.6,10.6,30.29,SW,228,1.0,4.0,62,0.00,,,0.00,19,LWC V2.00 B2112,2013-02-02 16:30:00,
2013-02-02 11:40:00,21.6,10.6,30.29,SW,228,1.0,4.0,62,0.00,,,0.00,19,LWC V2.00 B2112,2013-02-02 16:40:00,
2013-02-02 11:50:00,21.6,10.6,30.29,SW,228,1.0,4.0,62,0.00,,,0.00,19,LWC V2.00 B2112,2013-02-02 16:50:00,
2013-02-02 12:00:00,21.6,10.6,30.29,SW,228,1.0,4.0,62,0.00,,,0.00,19,LWC V2.00 B2112,2013-02-02 17:00:00,
2013-02-02 12:10:00,21.6,10.6,30.29,SW,228,1.0,4.0,62,0.00,,,0.00,19,LWC V2.00 B2112,2013-02-02 17:10:00,
2013-02-02 12:20:00,21.6,10.6,30.29,SW,228,1.0,4.0,62,0.00,,,0.00,19,LWC V2.00 B2112,2013-02-02 17:20:00,
2013-02-02 12:30:00,21.6,10.6,30.29,SW,228,1.0,4.0,62,0.00,,,0.00,19,LWC V2.00 B2112,2013-02-02 17:30:00,
2013-02-02 12:40:00,21.6,10.6,30.29,SW,227,1.0,4.0,62,0.00,,,0.00,19,LWC V2.00 B2112,2013-02-02 17:40:00,
2013-02-02 12:50:00,21.6,10.6,30.29,SW,227,1.0,4.0,62,0.00,,,0.00,19,LWC V2.00 B2112,2013-02-02 17:50:00,
2013-02-02 13:00:00,21.6,10.6,30.29,SW,227,1.0,4.0,62,0.00,,,0.00,19,LWC V2.00 B2112,2013-02-02 18:00:00,
2013-02-02 13:10:00,21.6,10.6,30.29,SW,227,1.0,4.0,62,0.00,,,0.00,19,LWC V2.00 B2112,2013-02-02 18:10:00,
2013-02-02 13:20:00,21.6,10.6,30.29,SW,227,1.0,4.0,62,0.00,,,0.00,19,LWC V2.00 B2112,2013-02-02 18:20:00,
2013-02-02 13:30:00,21.6,10.6,30.29,SW,227,1.0,4.0,62,0.00,,,0.00,19,LWC V2.00 B2112,2013-02-02 18:30:00,
2013-02-02 13:40:00,21.6,10.6,30.29,SW,227,1.0,4.0,62,0.00,,,0.00,19,LWC V2.00 B2112,2013-02-02 18:40:00,
2013-02-02 13:50:00,21.6,10.6,30.29,SW,227,1.0,4.0,62,0.00,,,0.00,19,LWC V2.00 B2112,2013-02-02 18:50:00,
2013-02-02 14:00:00,21.6,10.6,30.29,SW,227,1.0,4.0,62,0.00,,,0.00,19,LWC V2.00 B2112,2013-02-02 19:00:00,
2013-02-02 14:10:00,21.6,10.6,30.29,SW,227,1.0,4.0,62,0.00,,,0.00,19,LWC V2.00 B2112,2013-02-02 19:10:00,
2013-02-02 14:20:00,21.6,10.6,30.29,SW,227,1.0,4.0,62,0.00,,,0.00,19,LWC V2.00 B2112,2013-02-02 19:20:00,
2013-02-02 14:30:00,21.6,10.6,30.29,SW,227,1.0,4.0,62,0.00,,,0.00,19,LWC V2.00 B2112,2013-02-02 19:30:00,
2013-02-02 14:40:00,21.6,10.6,30.29,SW,227,1.0,4.0,62,0.00,,,0.00,19,LWC V2.00 B2112,2013-02-02 19:40:00,
2013-02-02 14:50:00,21.6,10.6,30.29,SW,227,1.0,4.0,62,0.00,,,0.00,19,LWC V2.00 B2112,2013-02-02 19:50:00,
2013-02-02 15:00:00,21.6,10.6,30.29,SW,227,1.0,4.0,62,0.00,,,0.00,19,LWC V2.00 B2112,2013-02-02 20:00:00,
2013-02-02 15:10:00,21.6,10.6,30.29,SW,227,1.0,4.0,62,0.00,,,0.00,19,LWC V2.00 B2112,2013-02-02 20:10:00,
2013-02-02 15:20:00,21.6,10.6,30.29,SW,227,1.0,4.0,62,0.00,,,0.00,19,LWC V2.00 B2112,2013-02-02 20:20:00,
2013-02-02 15:30:00,21.6,10.6,30.29,SW,227,1.0,4.0,62,0.00,,,0.00,19,LWC V2.00 B2112,2013-02-02 20:30:00,
2013-02-02 15:40:00,21.6,10.6,30.29,SW,227,1.0,4.0,62,0.00,,,0.00,19,LWC V2.00 B2112,2013-02-02 20:40:00,
2013-02-02 15:50:00,21.6,10.7,30.29,SW,227,1.0,4.0,62,0.00,,,0.00,19,LWC V2.00 B2112,2013-02-02 20:50:00,
2013-02-02 16:00:00,21.6,10.7,30.29,SW,227,1.0,4.0,62,0.00,,,0.00,19,LWC V2.00 B2112,2013-02-02 21:00:00,
2013-02-02 16:10:00,21.6,10.7,30.29,SW,227,1.0,4.0,62,0.00,,,0.00,19,LWC V2.00 B2112,2013-02-02 21:10:00,
2013-02-02 16:20:00,21.6,10.7,30.29,SW,227,1.0,4.0,62,0.00,,,0.00,19,LWC V2.00 B2112,2013-02-02 21:20:00,
2013-02-02 16:30:00,21.6,10.7,30.29,SW,227,1.0,4.0,62,0.00,,,0.00,19,LWC V2.00 B2112,2013-02-02 21:30:00,
2013-02-02 16:40:00,21.6,10.7,30.29,SW,227,1.0,4.0,62,0.00,,,0.00,19,LWC V2.00 B2112,2013-02-02 21:40:00,
2013-02-02 16:50:00,21.6,10.7,30.29,SW,227,1.0,4.0,62,0.00,,,0.00,19,LWC V2.00 B2112,2013-02-02 21:50:00,
2013-02-02 17:00:00,21.6,10.7,30.29,SW,227,1.0,4.0,62,0.00,,,0.00,19,LWC V2.00 B2112,2013-02-02 22:00:00,
2013-02-02 17:10:00,21.6,10.7,30.29,SW,227,1.0,4.0,62,0.00,,,0.00,19,LWC V2.00 B2112,2013-02-02 22:10:00,
2013-02-02 17:20:00,21.6,10.7,30.29,SW,227,1.0,4.0,62,0.00,,,0.00,19,LWC V2.00 B2112,2013-02-02 22:20:00,
2013-02-02 17:30:00,21.6,10.7,30.29,SW,227,1.0,4.0,62,0.00,,,0.00,19,LWC V2.00 B2112,2013-02-02 22:30:00,
2013-02-02 17:40:00,21.6,10.7,30.29,SW,227,1.0,4.0,62,0.00,,,0.00,19,LWC V2.00 B2112,2013-02-02 22:40:00,
2013-02-02 17:50:00,21.6,10.7,30.29,SW,227,1.0,4.0,62,0.00,,,0.00,19,LWC V2.00 B2112,2013-02-02 22:50:00,
2013-02-02 18:00:00,21.6,10.7,30.29,SW,227,1.0,4.0,62,0.00,,,0.00,19,LWC V2.00 B2112,2013-02-02 23:00:00,
2013-02-02 18:10:00,21.6,10.7,30.29,SW,227,1.0,4.0,62,0.00,,,0.00,19,LWC V2.00 B2112,2013-02-02 23:10:00,
2013-02-02 18:20:00,21.7,10.7,30.29,SW,227,1.0,4.0,62,0.00,,,0.00,19,LWC V2.00 B2112,2013-02-02 23:20:00,
2013-02-02 18:30:00,21.7,10.7,30.29,SW,227,1.0,4.0,62,0.00,,,0.00,19,LWC V2.00 B2112,2013-02-02 23:30:00,
2013-02-02 18:40:00,21.7,10.7,30.29,SW,227,1.0,4.0,62,0.00,,,0.00,19,LWC V2.00 B2112,2013-02-02 23:40:00,
2013-02-02 18:50:00,21.7,10.7,30.29,SW,227,1.0,4.0,62,0.00,,,0.00,19,LWC V2.00 B2112,2013-02-02 23:50:00,
2013-02-02 19:00:00,21.7,10.7,30.29,SW,227,1.0,4.0,62,0.00,,,0.00,19,LWC V2.00 B2112,2013-02-03 00:00:00,
2013-02-02 19:10:00,21.7,10.7,30.29,SW,227,1.0,4.0,62,0.00,,,0.00,19,LWC V2.00 B2112,2013-02-03 00:10:00,
2013-02-02 19:20:00,21.7,10.7,30.29,SW,227,1.0,4.0,62,0.00,,,0.00,19,LWC V2.00 B2112,2013-02-03 00:20:00,
2013-02-02 19:30:00,21.7,10.7,30.29,SW,227,1.0,4.0,62,0.00,,,0.00,19,LWC V2.00 B2112,2013-02-03 00:30:00,
2013-02-02 19:40:00,21.7,10.7,30.29,SW,227,1.0,4.0,62,0.00,,,0.00,19,LWC V2.00 B2112,2013-02-03 00:40:00,
2013-02-02 19:50:00,21.7,10.7,30.29,SW,227,1.0,4.0,62,0.00,,,0.00,19,LWC V2.00 B2112,2013-02-03 00:50:00,
2013-02-02 20:00:00,21.7,10.7,30.29,SW,227,1.0,4.0,62,0.00,,,0.00,19,LWC V2.00 B2112,2013-02-03 01:00:00,
2013-02-02 20:10:00,21.7,10.7,30.29,SW,227,1.0,4.0,62,0.00,,,0.00,19,LWC V2.00 B2112,2013-02-03 01:10:00,
2013-02-02 20:20:00,21.7,10.7,30.29,SW,227,1.0,4.0,62,0.00,,,0.00,19,LWC V2.00 B2112,2013-02-03 01:20:00,
2013-02-02 20:30:00,21.7,10.7,30.29,SW,227,1.0,4.0,62,0.00,,,0.00,19,LWC V2.00 B2112,2013-02-03 01:30:00,
2013-02-02 20:40:00,21.7,10.7,30.29,SW,227,1.0,4.0,62,0.00,,,0.00,19,LWC V2.00 B2112,2013-02-03 01:40:00,
2013-02-02 20:50:00,21.7,10.7,30.29,SW,227,1.0,4.0,62,0.00,,,0.00,19,LWC V2.00 B2112,2013-02-03 01:50:00,
2013-02-02 21:00:00,21.7,10.7,30.29,SW,227,1.0,4.0,62,0.00,,,0.00,19,LWC V2.00 B2112,2013-02-03 02:00:00,
2013-02-02 21:10:00,21.7,10.7,30.29,SW,227,1.0,4.0,62,0.00,,,0.00,19,LWC V2.00 B2112,2013-02-03 02:10:00,
2013-02-02 21:20:00,21.7,10.7,30.29,SW,227,1.0,4.0,62,0.00,,,0.00,19,LWC V2.00 B2112,2013-02-03 02:20:00,
2013-02-02 21:30:00,21.7,10.7,30.29,SW,227,1.0,4.0,62,0.00,,,0.00,19,LWC V2.00 B2112,2013-02-03 02:30:00,
2013-02-02 21:40:00,21.7,10.7,30.29,SW,227,1.0,4.0,62,0.00,,,0.00,19,LWC V2.00 B2112,2013-02-03 02:40:00,
2013-02-02 21:50:00,21.7,10.7,30.29,SW,227,1.0,4.0,62,0.00,,,0.00,19,LWC V2.00 B2112,2013-02-03 02:50:00,
2013-02-02 22:00:00,21.7,10.7,30.29,SW,227,1.0,4.0,62,0.00,,,0.00,19,LWC V2.00 B2112,2013-02-03 03:00:00,
2013-02-02 22:10:00,21.7,10.7,30.29,SW,227,1.0,4.0,62,0.00,,,0.00,19,LWC V2.00 B2112,2013-02-03 03:10:00,
2013-02-02 22:20:00,21.7,10.7,30.29,SW,227,1.0,4.0,62,0.00,,,0.00,19,LWC V2.00 B2112,2013-02-03 03:20:00,
2013-02-02 22:30:00,21.7,10.7,30.29,SW,227,1.0,4.0,62,0.00,,,0.00,19,LWC V2.00 B2112,2013-02-03 03:30:00,
2013-02-02 22:40:00,21.7,10.7,30.29,SW,227,1.0,4.0,62,0.00,,,0.00,19,LWC V2.00 B2112,2013-02-03 03:40:00,
2013-02-02 22:50:00,21.7,10.7,30.29,SW,227,1.0,4.0,62,0.00,,,0.00,19,LWC V2.00 B2112,2013-02-03 03:50:00,
2013-02-02 23:00:00,21.7,10.7,30.29,SW,227,1.0,4.0,62,0.00,,,0.00,19,LWC V2.00 B2112,2013-02-03 04:00:00,
2013-02-02 23:10:00,21.7,10.7,30.29,SW,227,1.0,4.0,62,0.00,,,0.00,19,LWC V2.00 B2112,2013-02-03 04:10:00,
2013-02-02 23:20:00,21.7,10.7,30.29,SW,227,1.0,4.0,62,0.00,,,0.00,19,LWC V2.00 B2112,2013-02-03 04:20:00,
2013-02-02 23:30:00,21.7,10.7,30.29,SW,227,1.0,4.0,62,0.00,,,0.00,19,LWC V2.00 B2112,2013-02-03 04:30:00,
2013-02-02 23:40:00,21.7,10.7,30.29,SW,227,1.0,4.0,62,0.00,,,0.00,19,LWC V2.00 B2112,2013-02-03 04:40:00,
2013-02-02 23:50:00,21.7,10.7,30.29,SW,227,1.0,4.0,62,0.00,,,0.00,19,LWC V2.00 B2112,2013-02-03 04:50:00,